[Iaude] MPEC C44: 2024 CK [a=1.32,e=0.30,i=8.3,H=25.3]
    mpec at marsden.cfa.harvard.edu 
    mpec at marsden.cfa.harvard.edu
       
    Sun Feb  4 19:12:07 EST 2024
    
    
  
M.P.E.C. 2024-C44                              Issued 2024 February 5, 00:10 UT
     The Minor Planet Electronic Circulars contain information on unusual
         minor planets, routine data on comets and natural satellites,
         and occasional editorial announcements.  They are published
    on behalf of Division F of the International Astronomical Union by the
          Minor Planet Center, Smithsonian Astrophysical Observatory,
                          Cambridge, MA 02138, U.S.A.
			  
             Prepared using the Tamkin Foundation Computer Network
                              MPC at CFA.HARVARD.EDU
            URL https://www.minorplanetcenter.net/    ISSN 1523-6714
                                    2024 CK                                     
Observations:
     K24C00K*1C2024 02 04.36020408 24 53.975+26 47 55.03         17.38GVEC044703
     K24C00K 1C2024 02 04.36245708 24 57.020+26 48 30.20         17.42GVEC044703
     K24C00K 1C2024 02 04.36470808 25 00.095+26 49 04.94         17.43GVEC044703
     K24C00K 1C2024 02 04.36695808 25 03.112+26 49 40.26         17.12GVEC044703
     K24C00K mC2024 02 04.39644008 25 43.442+26 57 10.91         17.53GVEC044V06
     K24C00K mC2024 02 04.39663108 25 43.723+26 57 13.93         17.56GVEC044V06
     K24C00K mC2024 02 04.39682308 25 43.993+26 57 16.85         17.59GVEC044V06
     K24C00K mC2024 02 04.39701508 25 44.260+26 57 19.84         17.60GVEC044V06
     K24C00K  C2024 02 04.41688208 26 27.626+27 04 25.25         17.44oVEC044T08
     K24C00K  C2024 02 04.42011508 26 31.874+27 05 15.68         17.28oVEC044T08
     K24C00K  C2024 02 04.42585508 26 39.406+27 06 44.71         17.53oVEC044T08
     K24C00K 1C2024 02 04.43216008 26 32.564+27 06 06.52               VEC044703
     K24C00K 1C2024 02 04.43234008 26 32.860+27 06 09.83         17.98GVEC044703
     K24C00K 1C2024 02 04.43351908 26 34.483+27 06 26.64         17.87GVEC044703
     K24C00K 1C2024 02 04.43479208 26 36.280+27 06 45.72         18.20GVEC044703
     K24C00K  C2024 02 04.43641508 26 53.234+27 09 26.96         18.00oVEC044T08
     K24C00K KC2024 02 04.51526408 29 03.71 +27 27 35.8          17.5 GVEC044900
     K24C00K KC2024 02 04.52261008 29 13.42 +27 29 29.4          17.5 GVEC044900
     K24C00K KC2024 02 04.53107208 29 24.55 +27 31 39.8          18.1 GVEC044900
     K24C00K KC2024 02 04.53842008 29 34.18 +27 33 32.0          18.2 GVEC044900
     K24C00K  B2024 02 04.66051 08 32 24.87 +28 04 03.1          17.8 GVEC044O46
     K24C00K  B2024 02 04.66725 08 32 33.46 +28 05 41.7          18.6 GVEC044O46
     K24C00K  B2024 02 04.66904 08 32 35.73 +28 06 08.3          18.7 GVEC044O46
     K24C00K KB2024 02 04.67405 08 32 42.06 +28 07 19.6          18.5 GVEC044O46
     K24C00K KB2024 02 04.67955 08 32 48.96 +28 08 38.8          18.6 GVEC044O46
     K24C00K KB2024 02 04.68522 08 32 55.94 +28 10 00.5          17.7 GVEC044O46
     K24C00K KC2024 02 04.73075 08 34 14.59 +28 17 22.3                VEC044587
     K24C00K KC2024 02 04.73591 08 34 21.62 +28 18 38.4          18.3 GVEC044587
     K24C00K KC2024 02 04.73961008 34 26.63 +28 19 32.6                VEC044587
     K24C00K KC2024 02 04.75296708 34 45.50 +28 23 07.4          17.0 RVEC044M50
     K24C00K KC2024 02 04.75455008 34 47.57 +28 23 30.3                VEC044M50
     K24C00K KC2024 02 04.78701 08 35 29.76 +28 31 47.2          18.2 VZEC044M63
     K24C00K  C2024 02 04.78934 08 35 30.07 +28 32 10.5          17.7 GVEC044073
     K24C00K KC2024 02 04.78989 08 35 33.44 +28 32 28.5          18.6 VZEC044M63
     K24C00K  C2024 02 04.79185 08 35 33.24 +28 32 45.1          18.1 GVEC044073
     K24C00K KC2024 02 04.79306 08 35 37.50 +28 33 13.7          18.0 VZEC044M63
     K24C00K  C2024 02 04.79385 08 35 35.90 +28 33 15.3          18.0 GVEC044073
     K24C00K  C2024 02 04.80206308 35 46.17 +28 35 10.9          18.0 GVEC044073
     K24C00K KC2024 02 04.80536 08 35 54.08 +28 35 58.1          18.6 GVEC044C82
     K24C00K KC2024 02 04.80659 08 35 55.61 +28 36 15.9          18.7 GVEC044C82
     K24C00K KC2024 02 04.80919 08 35 58.87 +28 36 53.5          18.1 GVEC044C82
     K24C00K  C2024 02 04.81012608 35 56.42 +28 37 04.3          17.9 GVEC044073
     K24C00K KC2024 02 04.81341 08 36 04.27 +28 37 53.2          17.5 GVEC044C82
     K24C00K  C2024 02 04.81672308 36 04.51 +28 38 32.7          18.0 GVEC044073
     K24C00K KC2024 02 04.81763 08 36 09.66 +28 38 53.0          18.3 GVEC044C82
     K24C00K KC2024 02 04.82653108 36 21.055+28 39 41.58         18.6 GVEC044Z80
     K24C00K KC2024 02 04.83540508 36 32.532+28 41 46.64         18.6 GVEC044Z80
     K24C00K KB2024 02 04.87157 08 37 18.90 +28 50 54.6          18.4 GXEC044K19
     K24C00K KB2024 02 04.87449 08 37 22.54 +28 51 34.9          18.3 GXEC044K19
     K24C00K KB2024 02 04.87740 08 37 26.18 +28 52 15.3          18.2 GXEC044K19
Observer details:
073 Bucharest.  Observers A. Sonka, A. Nedelcu.  Measurer A. Sonka.  0.50-m
    f/8 reflector + CCD, 0.50-m f/7 500mm Reflector + CCD.
587 Sormano.  Observers A. Fumagalli, A. Testa.  Measurer A. Testa.  0.5-m
    f/6.8 reflector + CCD.
703 Catalina Sky Survey.  Observer J. K. Hogan.  Measurers T. Beuden, V. F.
    Carvajal, D. Fay, J. B. Fazekas, D. C. Fuls, A. R. Gibbs, A. D. Grauer, H.
    Groeller, J. K. Hogan, R. A. Kowalski, S. M. Larson, G. J. Leonard, D.
    Rankin, R. L. Seaman, F. C. Shelly, K. W. Wierzchos.  0.68-m Schmidt + 10K
    CCD.
900 Moriyama.  Observer Y. Ikari.  0.26-m f/7.0 reflector + CMO.
C82 Osservatorio Astronomico Nastro Verde, Sorrento.  Observer N. Ruocco.
    0.35-m f/6.3  Schmidt-Cassegrain + CCD.
K19 PASTIS Observatory, Banon.  Observer C. Demeautis.  0.28-m f/2.2 reflector
    + CMO.
M50 Virtual Telescope Project, Manciano.  Observer G. Masi.  0.36-m  f/6.9
    Schmidt-Cassegrain + CCD.
M63 RPF Observatory, Gagliano del Capo.  Observer D. Licchelli.  0.30-m f/5.3
    reflector + CCD.
O46 Daocheng Glacier Observatory.  Observer Z. Wang.  0.25-m f/8 reflector +
    CMO.
T08 ATLAS-MLO, Mauna Loa.  Observers L. Denneau, R. Siverd, J. Tonry, H.
    Weiland.  Measurers L. Denneau, N. Erasmus, A. Fitzsimmons, A. Lawrence,
    J. Robinson, R. Siverd, J. Tonry, H. Weiland.  0.5-m Reflector + CCD.
V06 Catalina Sky Survey-Kuiper.  Observer G. J. Leonard.  Measurers T. Beuden,
    V. F. Carvajal, D. Fay, J. B. Fazekas, D. C. Fuls, A. R. Gibbs, A. D.
    Grauer, H. Groeller, J. K. Hogan, R. A. Kowalski, S. M. Larson, G. J.
    Leonard, D. Rankin, R. L. Seaman, F. C. Shelly, K. W. Wierzchos.  1.55-m
    reflector + 1K CCD.
Z80 Northolt Branch Observatory.  Observer G. Wells.  0.25-m f/8.0 Ritchey-
    Chretien + CCD.
Orbital elements:
2024 CK                                                  Earth MOID = 0.0118 AU
Epoch 2023 Sept. 13.0 TT = JDT 2460200.5                Bell                    
M 293.05635              (2000.0)            P               Q                  
n   0.64635016     Peri.  312.89862     +0.06090914     -0.99255852             
a   1.3248218      Node   133.28650     +0.95279737     +0.02633834             
e   0.2968138      Incl.    8.32852     +0.29743444     +0.11888601             
P   1.52           H   25.38          G   0.15           U   7                  
Residuals in seconds of arc
240204 703  0.1+  0.1-    240204 900  0.0   0.1-    240204 073  1.3+  0.3+
240204 703  0.2-  0.1+    240204 900  0.2-  0.1-    240204 M63  0.2-  0.3-
240204 703  0.1-  0.1-    240204 900  0.4-  0.5-    240204 073  2.7+  2.1+
240204 703  0.8-  0.5+    240204 O46  2.3-  0.5-    240204 073  0.2+  1.3+
240204 V06  0.2-  0.2-    240204 O46  0.9-  0.1+    240204 C82  1.2+  0.6-
240204 V06  0.1+  0.0     240204 O46  0.6-  0.7+    240204 C82  0.7+  0.3-
240204 V06  0.2+  0.0     240204 O46  0.1-  0.5-    240204 C82  0.1-  0.3+
240204 V06  0.2+  0.0     240204 O46  0.0   0.5-    240204 073  0.7+  1.1+
240204 T08  0.0   0.1-    240204 O46  1.5-  0.2-    240204 C82  0.2+  0.1+
240204 T08  0.0   0.1+    240204 587  0.6-  0.3-    240204 073  2.3-  3.1-
240204 T08  0.0   0.2+    240204 587  0.5-  0.0     240204 C82  0.6+  0.1+
240204 703  0.5-  0.2-    240204 587  0.6-  0.1-    240204 Z80  0.7-  0.3+
240204 703  0.1+  0.5+    240204 M50  0.0   0.4-    240204 Z80  0.8-  0.6+
240204 703  0.0   0.2-    240204 M50  0.6-  0.7-    240204 K19  0.5-  0.7-
240204 703  0.5+  0.0     240204 M63  0.2+  0.1-    240204 K19  0.4-  0.6-
240204 T08  0.1-  0.2-    240204 073  1.8+  1.4+    240204 K19  0.1-  0.1-
240204 900  0.1+  0.1+    240204 M63  0.1-  0.1-
Ephemeris:
2024 CK                  a,e,i = 1.32, 0.30, 8                   q = 0.9316
Date    TT    R. A. (2000) Decl.     Delta      r    Elong.  Phase     V
2024 01 06    00 01 14.4 -45 41 41   0.1121  0.9382    63.2   110.6    24.7
...
2024 01 21    01 14 53.4 -45 10 10   0.04843 0.9657    66.5   110.9    23.0
...
2024 01 29    04 11 48.2 -29 49 07   0.01880 0.9880    99.1    79.9    19.5
...
2024 02 04    08 15 45.5 +25 06 55   0.02258 1.0075   165.3    14.4    18.0
2024 02 05    08 39 56.9 +29 20 28   0.02602 1.0110   165.1    14.6    18.3
2024 02 06    08 59 37.3 +32 20 33   0.02975 1.0145   163.2    16.3    18.7
...
2024 02 12    10 03 33.2 +39 28 35   0.05502 1.0368   154.0    24.7    20.3
...
2024 02 20    10 33 36.9 +41 06 55   0.09187 1.0689   149.7    27.8    21.6
...
2024 03 06    10 51 10.6 +39 48 56   0.1677  1.1346   145.7    29.5    23.1
M. P. C. Staff               (C) Copyright 2024 MPC           M.P.E.C. 2024-C44
    
    
More information about the Iaude
mailing list